GW1708 Weather Reports


time (UTC)temp
C
wind
direction
speed
KPH
gust
KPH
rain 1hr
cm
rain 24hr
cm
rain mn
cm
humidity
%
barometer
mb
20260505193033 14 96 0.0 0.0 0.00 0.00 0.00 96 833.4
20260505191529 13 117 0.0 0.0 0.00 0.00 0.00 100 833.3
20260505190033 13 73 0.0 0.0 0.00 0.00 0.00 100 833.2
20260505184527 13 139 0.0 0.0 0.00 0.00 0.00 100 833.1
20260505183026 13 125 0.0 0.0 0.00 0.00 0.00 100 833.1
20260505181523 12 298 0.0 1.6 0.00 0.00 0.00 100 832.9
20260505180022 12 96 0.0 0.0 0.00 0.00 0.00 100 833.0
20260505174528 12 312 0.0 0.0 0.00 0.00 0.00 100 832.7
20260505173019 12 306 0.0 0.0 0.00 0.00 0.00 100 832.5
20260505171518 11 311 0.0 0.0 0.00 0.00 0.00 100 832.5
20260505170020 11 311 0.0 0.0 0.00 0.00 0.00 100 832.3
20260505164518 11 305 0.0 0.0 0.00 0.00 0.00 100 832.2
20260505163021 11 316 0.0 0.0 0.00 0.00 0.00 100 832.2
20260505161517 11 310 0.0 0.0 0.00 0.00 0.00 100 831.9
20260505153016 11 313 0.0 0.0 0.00 0.00 0.00 100 831.8
20260505151518 11 309 0.0 0.0 0.00 0.00 0.00 100 831.7
20260505124511 11 305 0.0 0.0 0.00 0.00 0.00 100 831.7
20260505123007 11 306 0.0 0.0 0.00 0.00 0.00 100 831.9
20260505121512 11 312 0.0 0.0 0.00 0.00 0.00 100 832.0
20260505120004 11 313 0.0 0.0 0.00 0.00 0.00 100 832.2
20260505114501 11 296 0.0 0.0 0.00 0.00 0.00 100 832.2
20260505113101 11 296 0.0 0.0 0.00 0.00 0.00 100 832.2
20260505111557 12 321 0.0 0.0 0.00 0.00 0.00 100 832.5
20260505101555 12 292 0.0 0.0 0.00 0.00 0.00 100 833.2
20260505100048 12 292 0.0 0.0 0.00 0.00 0.00 100 833.2
20260505094547 12 292 0.0 0.0 0.00 0.00 0.00 100 833.3
20260505093047 12 287 0.0 0.0 0.00 0.00 0.00 100 833.5
20260505091547 12 311 0.0 0.0 0.00 0.00 0.00 100 833.6
20260505090058 12 304 0.0 0.0 0.00 0.00 0.00 100 833.5
20260505084550 12 304 0.0 0.0 0.00 0.00 0.00 100 833.6
20260505083052 12 304 0.0 0.0 0.00 0.00 0.00 100 833.6
20260505081547 12 300 0.0 0.0 0.00 0.00 0.00 100 833.6
20260505080046 12 236 0.0 6.4 0.00 0.00 0.00 100 833.7
20260505074544 12 229 0.0 0.0 0.00 0.00 0.00 100 833.7
20260505073044 12 315 0.0 0.0 0.00 0.00 0.00 100 833.9
20260505071542 12 316 0.0 0.0 0.00 0.00 0.00 100 833.8
20260505070045 12 316 0.0 0.0 0.00 0.00 0.00 100 833.7
20260505064541 13 223 0.0 0.0 0.00 0.00 0.00 100 833.6
20260505063042 12 223 0.0 0.0 0.00 0.00 0.00 100 833.5
20260505061546 13 223 0.0 0.0 0.00 0.00 0.00 100 833.4
20260505060040 13 223 0.0 0.0 0.00 0.00 0.00 100 833.4
20260505054544 12 223 0.0 0.0 0.00 0.00 0.00 100 833.3
20260505053045 12 225 0.0 1.6 0.00 0.00 0.00 100 833.1
20260505051539 12 215 0.0 0.0 0.00 0.00 0.00 100 833.1
20260505041538 13 203 0.0 0.0 0.00 0.00 0.00 100 833.0
20260505040037 13 196 0.0 1.6 0.00 0.00 0.00 100 832.9
20260505034536 13 225 0.0 0.0 0.00 0.00 0.00 100 833.0
20260505033100 13 183 0.0 0.0 0.00 0.00 0.00 100 833.0
20260505031538 13 232 0.0 0.0 0.00 0.00 0.00 100 832.9
20260505030035 13 192 0.0 0.0 0.00 0.00 0.00 100 832.8
20260505024534 13 170 0.0 0.0 0.00 0.00 0.00 100 832.6
20260505023042 13 202 0.0 4.8 0.00 0.00 0.00 100 832.6
20260505021533 13 199 0.0 1.6 0.00 0.00 0.00 100 832.6
20260505020033 13 171 0.0 3.2 0.00 0.00 0.00 100 832.8
20260505014534 15 212 0.0 1.6 0.00 0.00 0.00 97 832.8
20260505013032 15 157 0.0 0.0 0.00 0.00 0.00 96 833.0
20260505011531 16 153 0.0 0.0 0.00 0.00 0.00 92 833.1
20260505010032 17 199 0.0 0.0 0.00 0.00 0.00 93 833.3
20260505004541 16 222 0.0 0.0 0.00 0.00 0.00 96 833.3
20260505003029 15 135 0.0 0.0 0.00 0.00 0.00 98 833.3
20260505001528 15 211 0.0 1.6 0.00 0.00 0.00 97 833.3
20260505000028 15 207 0.0 0.0 0.00 0.00 0.00 96 833.4
20260504234535 15 219 0.0 0.0 0.00 0.00 0.00 98 833.5
20260504233027 15 123 0.0 0.0 0.00 0.00 0.00 100 833.5
20260504231538 14 193 0.0 0.0 0.00 0.00 0.00 100 833.7
20260504230026 13 304 0.0 0.0 0.00 0.00 0.00 100 833.7
20260504224528 14 322 0.0 0.0 0.00 0.00 0.00 100 833.8
20260504223025 14 289 0.0 0.0 0.00 0.00 0.00 100 834.0
20260504221525 13 317 0.0 0.0 0.00 0.00 0.00 100 833.9
20260504220025 14 335 0.0 1.6 0.00 0.00 0.00 100 834.0
20260504214533 14 308 0.0 0.0 0.00 0.00 0.00 99 833.9
20260504213029 15 297 0.0 0.0 0.00 0.00 0.00 98 834.0
20260504211522 14 280 0.0 0.0 0.00 0.00 0.00 96 834.1
20260504210022 15 195 0.0 0.0 0.00 0.00 0.00 98 834.0
20260504204550 15 205 0.0 0.0 0.00 0.00 0.00 93 834.1
20260504203027 16 164 0.0 9.7 0.00 0.00 0.00 92 834.0
20260504201520 16 134 0.0 4.8 0.00 0.00 0.00 93 834.1
20260504200028 16 230 0.0 0.0 0.00 0.00 0.00 93 834.1
20260504194520 16 163 0.0 0.0 0.00 0.00 0.00 91 834.1